User: anonymous   Login
Location: Vienna
(48.2082°N, 16.3738°E)
Time: 05:02:31
(UTC+01:00)
Language:

ISS - Orbit

View from above orbital plane
View from above orbital plane
View from above satellite
View from above satellite

Ground track
Ground track

The orbit data is extracted from the following two-line orbital elements,

1 25544U 98067A   20338.67172690  .00016717  00000-0  10270-3 0  9078
2 25544  51.6425 229.8616 0001630  96.3859 263.7477 15.49129333 18284
Epoch (UTC): 03 December 2020 16:07:17
Eccentricity: 0.0001630
inclination: 51.6425°
perigee height: 418 km
apogee height: 420 km
right ascension of ascending node: 229.8616°
argument of perigee: 96.3859°
revolutions per day: 15.49129333
mean anomaly at epoch: 263.7477°
orbit number at epoch: 1828

The dashed part of the orbit path shows where the satellite is in the earth's shadow,  

DLR